OPS 4682 DEB, 38401

Orbit data source: Space-Track

OPS 4682 DEB, 38401 is space debris in LEO originally from a launch on Sat, 03 Apr 1965 UTC launched from the Air Force Western Test Range (AFWTR). Debris objects in space refer to the collection of defunct objects orbiting the Earth. Examples of debris include non-operational satellites, rocket bodies, and fragments generated from explosions, collisions, or faulty payload assembly.

Loading next visibility...
Identifier
38401, 1965-027DE
Orbit
LEO
Country
Flag of USUS
Related business
Manufacturer
Unknown
Mission
Spacecraft
Bus & Motor
Unknown
Mass
Unknown
Launch date (UTC)
1965-04-03 (61 years ago)
Launch vehicle
Unknown
Launch site
Air Force Western Test Range (AFWTR)
Object type
Payload
Rocket body
Debris
Shape & HBR
Unknown shape, 0.1 m
Radar Cross Section
Small (<0.1 m²)

Expand to show TLE details & history
Last TLE update: 1 day ago

TLE from 1 day ago
0 OPS 4682 DEB
1 38401U 65027DE  26103.19552716  .00000224  00000-0  76744-3 0  9993
2 38401  90.2471   7.1461 0033272   2.4683 357.6594 12.95301417653961
Epoch: 2026-04-13T04:41Z
TLE epoch observation values (Epoch: 2026-04-13T04:41:33.546Z)
Latitude
-0.0001°
Longitude
95.36671°
Altitude
1,257.963 km
Speed
7.238 km/s
True Right ascension
00h 28m 35s
True Declination
0° 00' 00"
Sunlit
Object was in daylight at epoch
Visualization orbit readout
Latitude
Unknown
Longitude
Unknown
Altitude
Unknown
Speed
Unknown
Apparent Right ascension
Unknown
Apparent Declination
Unknown
Sunlit
N/A
Visualization observer readout
Local Sidereal Time
15:49:29
Azimuth
Unknown
Elevation
Unknown
Doppler factor
Unknown
Orbital elements
Apogee altitude
1,303.158 km
Perigee altitude
1,252.213 km
Semi-major axis
7,655.823 km
Eccentricity
0.00333
Inclination
90.2471°
RAAN
7.1461°
Arg. of periapsis
2.4683°
True anomaly
357.64376°
Mean anomaly
357.6594°
Eccentric anomaly
357.65159°
Mean motion
3.24008 °/min
Orbital period
111.11 mins
BSTAR
0.00076744
Loading maneuver chart data...
Computing Atmospheric mass density...
Loading historical data...
Loading historical data...
Loading historical data...
Loading historical data...
Loading historical data...
Loading historical data...
Loading historical data...

Documentation

Showing up to 5 results
|